Wind_Speed
7 7 7 7 8 8 8 8 8 7 8 8 8 9 9 10 10 10 11 11 11 11 11 12 12 12 12 12 12 12 12 12 11 11 10 10 10 10 10 10 10 10 10
7 8 8 9 9 9 9 9 9 9 9 9 10 10 10 11 11 12 12 12 11 11 12 12 13 13 13 13 13 14 14 13 12 12 12 12 11 11 11 11 12 12 11
8 9 9 9 9 10 10 10 10 10 10 11 11 11 12 12 13 13 13 13 13 13 13 13 14 14 14 14 14 15 15 14 14 13 13 13 13 13 12 13 13 13 12
9 10 10 10 10 10 10 11 11 11 11 12 12 13 13 14 14 15 15 15 14 15 15 15 15 15 15 15 15 15 16 16 15 15 15 14 14 14 14 14 14 13 13
11 11 11 11 11 11 11 11 12 12 13 13 14 14 15 15 16 16 16 16 16 16 16 17 17 16 16 16 16 16 16 16 16 16 16 16 16 16 16 16 15 15 14
12 12 12 12 13 13 13 13 13 14 15 15 15 15 16 16 17 17 17 18 18 18 18 18 18 18 18 18 18 18 17 17 17 17 17 17 17 16 16 16 16 15 15
12 12 13 13 13 14 14 14 15 16 17 17 17 17 17 18 18 18 19 19 19 19 19 19 19 19 19 20 20 19 19 18 18 18 19 18 18 17 17 16 15 15 16
14 14 14 14 14 14 15 15 16 17 17 18 18 19 19 19 19 20 20 20 20 20 20 20 21 22 22 22 21 21 21 20 20 20 19 20 20 19 18 18 17 16 16
15 15 15 16 16 16 16 17 17 17 18 18 19 20 20 20 21 21 21 22 22 22 22 22 22 24 24 24 24 23 22 22 22 21 21 21 21 21 20 20 19 19 18
16 16 16 17 17 17 18 18 18 19 19 20 20 21 22 22 22 22 22 23 23 24 23 24 24 25 26 26 25 24 24 24 23 23 22 22 23 22 22 21 20 20 20
16 17 18 19 19 20 19 19 20 20 21 22 22 22 22 23 24 24 24 24 24 24 24 25 25 25 25 26 26 24 24 24 24 24 23 23 23 23 23 23 22 21 21
18 18 19 20 21 21 22 21 21 22 22 23 23 23 23 24 25 24 25 25 25 25 26 26 26 26 26 26 25 25 25 24 24 24 24 24 24 24 24 24 24 23 22
19 20 21 21 22 23 23 23 23 24 23 24 24 24 25 24 24 25 25 25 25 25 26 25 26 26 25 25 25 24 24 24 25 25 24 24 25 25 25 26 25 25 24
20 21 22 22 23 24 24 24 24 25 25 25 25 25 25 25 25 25 25 26 25 25 26 25 25 26 26 25 25 25 25 25 25 25 26 26 26 26 27 26 26 26 26
21 22 22 23 24 25 24 24 25 25 25 26 26 27 27 26 27 27 27 27 26 26 26 26 25 25 26 26 26 26 27 27 27 26 26 27 27 28 27 27 27 27 28
21 22 23 24 24 25 24 24 25 25 26 27 27 28 28 27 27 27 27 27 27 27 27 27 26 26 26 26 27 27 27 28 28 28 28 28 28 28 28 28 28 28 28
23 23 24 25 25 25 25 26 26 26 27 27 28 28 29 28 28 28 27 28 28 28 27 27 27 27 27 27 27 27 27 27 28 28 28 28 29 29 30 30 30 30 30
22 23 24 25 24 25 26 25 25 24 26 27 27 28 29 29 28 28 28 28 28 27 27 27 27 27 27 26 27 27 27 27 27 28 28 28 29 30 30 30 30 30 30
22 24 25 25 25 26 25 25 25 25 26 26 27 28 28 29 28 28 28 28 28 28 28 28 27 27 27 27 27 27 26 27 27 28 28 28 29 30 29 30 30 30 31
23 25 25 25 25 25 26 26 27 28 29 27 27 28 28 27 27 27 27 28 28 28 28 28 28 27 27 28 29 28 28 28 28 28 29 29 29 30 29 29 30 30 31
25 25 25 26 26 27 28 28 27 29 29 27 26 26 25 25 25 26 26 26 27 28 28 27 28 28 29 29 29 30 29 29 29 28 29 29 29 29 30 30 31 31 32
24 25 26 26 28 29 29 28 28 28 29 26 23 23 23 24 24 25 25 27 27 27 27 28 28 28 28 29 29 29 30 29 29 29 29 29 29 29 30 31 31 31 32
24 25 25 27 27 28 28 28 27 27 26 25 23 23 23 24 24 23 25 26 26 26 26 27 27 27 28 28 28 28 28 29 29 29 30 30 30 30 31 32 32 32 32
25 26 27 27 27 27 27 28 28 26 25 25 23 23 23 23 24 24 25 25 26 26 26 25 26 26 27 27 27 28 28 29 28 28 29 30 31 31 31 32 32 33 33
26 27 27 27 27 27 27 27 26 25 25 25 24 23 22 22 23 24 24 24 25 25 25 24 25 26 26 26 26 27 28 28 28 28 29 30 31 32 33 32 33 33 34
26 27 27 28 27 26 26 26 25 25 24 24 23 22 21 21 22 23 23 23 24 24 24 24 24 25 25 25 25 26 27 28 28 29 29 30 31 31 32 33 33 33 34
Wind_Direction
338 332 326 325 323 322 324 325 329 330 331 332 332 329 327 324 323 321 319 318 317 314 311 310 309 306 302 301 298 297 295 293 292 291 286 282 279 278 274 271 267 264 262
328 322 319 315 315 315 318 320 323 325 325 323 323 324 322 320 318 316 314 311 309 307 305 304 303 302 300 299 296 293 292 291 290 289 286 282 278 275 273 271 266 263 261
322 320 316 311 313 313 312 313 315 318 319 317 316 319 319 317 316 312 309 306 302 300 299 299 298 298 297 296 293 291 290 288 286 285 284 281 277 273 271 270 265 261 259
319 318 315 310 312 312 310 311 311 312 311 311 311 313 313 313 312 312 308 303 299 297 296 296 296 295 295 293 290 289 288 286 283 281 280 278 275 272 270 268 263 261 258
318 314 311 308 308 306 305 306 307 308 307 305 305 306 307 308 309 308 307 304 299 296 294 293 292 292 291 289 287 284 283 281 278 276 276 275 273 271 271 268 262 259 257
314 312 308 305 305 306 303 304 304 304 304 302 300 301 303 305 306 305 303 303 301 296 294 292 289 288 288 286 284 282 279 278 275 273 273 273 273 272 270 267 264 260 257
311 311 307 308 306 306 304 301 301 301 302 301 299 299 300 301 301 301 300 300 299 297 295 292 289 288 287 285 283 280 278 277 275 272 271 270 270 270 268 264 263 260 260
308 307 306 305 305 305 304 301 301 301 302 301 300 299 297 297 298 297 295 295 295 294 293 292 290 286 284 283 282 280 278 275 274 272 270 268 268 267 266 264 262 263 261
304 305 305 303 301 301 301 301 300 298 298 298 299 299 297 295 295 296 296 294 292 291 290 289 288 286 283 281 280 279 278 274 272 271 269 267 267 267 265 265 263 263 262
302 303 304 303 302 301 300 300 300 299 297 297 297 298 296 293 294 295 295 295 292 289 288 286 286 287 284 282 281 280 278 275 272 271 268 266 266 266 266 264 263 263 261
304 303 303 303 301 301 300 297 297 296 295 295 296 296 295 293 293 293 292 290 290 289 287 286 285 286 285 284 281 281 280 277 274 272 271 267 266 265 265 263 262 262 262
305 303 302 302 302 301 298 296 296 295 295 295 295 294 294 293 292 292 291 289 288 288 286 285 283 284 284 283 282 279 278 277 273 271 270 267 265 266 265 263 262 261 260
303 303 303 302 300 298 296 295 296 294 293 293 293 292 292 291 291 291 291 291 289 287 286 285 282 283 283 281 281 280 277 278 273 270 270 268 266 265 265 263 262 259 257
303 302 301 302 300 299 296 295 294 293 291 291 291 290 290 290 289 289 290 291 289 287 285 286 284 282 281 281 279 278 278 277 274 271 270 268 266 266 265 263 262 259 258
304 301 297 299 298 295 295 296 295 294 292 291 289 289 288 289 289 289 289 290 289 287 287 285 283 281 279 280 278 277 276 276 274 272 270 269 268 265 264 264 262 259 258
301 300 299 297 296 293 294 295 295 292 292 292 289 288 287 287 288 289 290 288 287 287 286 284 281 280 279 277 278 278 277 274 273 271 270 268 266 264 263 262 262 260 258
299 296 296 296 294 293 294 296 294 292 292 292 289 286 287 287 287 287 287 285 285 286 285 283 281 280 279 278 277 277 276 274 271 272 270 268 266 264 263 262 262 259 257
297 294 293 295 296 296 297 296 295 294 294 293 291 290 287 287 287 286 285 284 285 285 284 281 278 278 278 279 279 277 275 273 272 271 270 268 266 264 262 262 261 259 257
297 296 294 296 298 299 298 296 295 295 295 293 294 294 290 286 286 287 285 284 284 283 283 281 279 278 278 278 278 277 274 272 272 271 271 270 267 265 264 262 261 261 258
297 298 297 298 299 298 297 296 298 299 298 294 294 297 291 286 286 287 287 285 284 283 282 281 280 279 279 278 277 275 273 273 273 272 271 270 267 265 264 264 262 260 258
298 297 297 298 297 297 297 298 299 300 299 297 297 300 297 291 289 288 287 286 285 284 283 282 281 280 279 277 276 275 273 273 273 272 270 268 266 265 264 264 262 261 258
298 297 298 298 299 299 298 298 298 300 299 298 299 300 298 293 290 288 287 285 285 284 284 283 282 282 280 279 277 275 274 273 272 272 270 268 267 266 264 263 262 261 259
295 295 298 298 298 299 299 299 299 300 300 300 298 297 295 294 292 290 289 289 287 287 285 285 284 284 282 281 279 277 275 274 272 271 270 269 268 267 266 264 263 261 260
297 296 297 300 300 298 298 301 302 302 301 299 296 296 295 295 293 291 289 289 288 288 286 288 288 286 285 282 280 278 277 276 273 270 270 270 269 268 267 266 264 261 260
299 299 299 298 298 298 298 301 303 302 302 300 295 294 293 293 294 292 292 291 289 288 288 289 289 289 289 286 283 280 279 277 274 271 270 270 270 269 267 266 264 262 260
299 300 300 299 299 299 299 300 302 302 301 300 297 296 296 294 295 295 294 293 291 291 292 291 290 291 292 291 287 283 281 280 277 274 272 270 269 267 266 266 265 263 261
Height
5881 5881 5880 5880 5880 5879 5878 5878 5877 5876 5876 5875 5875 5874 5873 5873 5872 5871 5870 5870 5869 5869 5868 5868 5867 5867 5867 5866 5866 5866 5865 5865 5865 5864 5864 5864 5865 5865 5865 5865 5866 5866 5866
5881 5880 5880 5879 5879 5878 5877 5876 5876 5875 5874 5873 5873 5872 5872 5871 5870 5869 5869 5868 5867 5867 5866 5866 5865 5865 5865 5864 5864 5863 5863 5863 5862 5862 5862 5862 5862 5862 5863 5863 5863 5864 5864
5880 5879 5879 5878 5877 5876 5875 5875 5874 5873 5872 5872 5871 5870 5870 5869 5868 5867 5867 5866 5865 5864 5864 5863 5863 5862 5862 5861 5861 5861 5861 5860 5860 5860 5860 5860 5860 5860 5860 5860 5861 5861 5862
5878 5878 5878 5877 5876 5875 5874 5873 5872 5872 5871 5870 5869 5869 5868 5867 5866 5865 5864 5863 5862 5862 5861 5860 5860 5859 5859 5859 5858 5858 5858 5858 5857 5857 5857 5857 5857 5857 5857 5858 5858 5858 5859
5877 5876 5876 5875 5874 5873 5872 5872 5871 5870 5869 5868 5867 5866 5865 5864 5863 5862 5861 5860 5859 5859 5858 5857 5857 5856 5856 5855 5855 5854 5854 5854 5854 5854 5854 5854 5854 5854 5854 5855 5855 5855 5856
5875 5874 5874 5873 5872 5872 5871 5870 5869 5868 5867 5866 5864 5863 5862 5861 5860 5859 5858 5857 5856 5855 5854 5854 5853 5852 5852 5852 5851 5851 5851 5850 5850 5851 5851 5851 5851 5851 5851 5851 5851 5852 5853
5872 5872 5872 5871 5870 5869 5868 5867 5866 5865 5864 5863 5861 5860 5859 5858 5856 5855 5854 5853 5852 5851 5850 5850 5849 5849 5848 5848 5847 5847 5847 5847 5846 5847 5847 5847 5847 5847 5847 5847 5848 5848 5849
5870 5870 5869 5868 5867 5866 5865 5864 5863 5862 5861 5860 5859 5857 5856 5854 5853 5852 5851 5850 5849 5848 5847 5846 5845 5844 5843 5843 5842 5842 5842 5842 5842 5842 5842 5842 5843 5843 5843 5844 5844 5844 5845
5868 5867 5866 5866 5864 5863 5862 5861 5860 5859 5858 5856 5855 5854 5852 5851 5850 5848 5847 5846 5845 5844 5843 5842 5840 5839 5838 5838 5837 5837 5837 5837 5837 5838 5838 5838 5838 5838 5839 5839 5840 5840 5841
5865 5864 5863 5862 5861 5860 5859 5857 5856 5855 5854 5853 5851 5850 5848 5847 5846 5845 5843 5842 5840 5839 5838 5837 5836 5835 5834 5833 5832 5832 5832 5832 5832 5832 5833 5833 5833 5833 5834 5834 5835 5836 5836
5863 5862 5860 5859 5858 5857 5855 5854 5852 5851 5850 5849 5847 5846 5844 5843 5842 5840 5838 5837 5835 5834 5833 5832 5831 5830 5829 5828 5827 5827 5827 5827 5827 5827 5828 5828 5828 5828 5829 5829 5830 5831 5832
5859 5858 5857 5856 5854 5853 5852 5850 5849 5847 5846 5844 5843 5841 5840 5838 5837 5835 5834 5832 5830 5829 5828 5827 5825 5824 5824 5823 5822 5822 5822 5822 5822 5822 5822 5822 5823 5823 5823 5824 5825 5826 5827
5856 5854 5853 5851 5850 5849 5847 5846 5844 5842 5841 5840 5838 5837 5835 5833 5832 5830 5829 5827 5825 5823 5822 5821 5820 5819 5818 5818 5817 5817 5817 5816 5816 5816 5816 5817 5817 5817 5818 5819 5820 5820 5821
5852 5850 5849 5847 5845 5844 5842 5841 5839 5838 5836 5835 5833 5832 5830 5828 5827 5825 5824 5822 5820 5818 5817 5816 5815 5814 5813 5813 5812 5811 5811 5811 5810 5810 5811 5811 5811 5812 5812 5813 5814 5815 5815
5848 5846 5844 5843 5841 5839 5837 5835 5834 5832 5831 5829 5828 5826 5824 5823 5821 5820 5818 5816 5814 5813 5812 5810 5809 5808 5807 5807 5806 5806 5805 5805 5804 5804 5804 5804 5805 5805 5806 5806 5807 5808 5809
5843 5841 5839 5838 5835 5833 5831 5829 5828 5826 5825 5823 5821 5820 5818 5816 5815 5813 5812 5810 5808 5807 5806 5804 5803 5802 5801 5800 5800 5799 5799 5798 5798 5798 5798 5798 5798 5799 5799 5800 5801 5801 5802
5838 5836 5834 5832 5830 5828 5826 5824 5822 5820 5818 5816 5815 5813 5811 5809 5808 5807 5805 5804 5802 5801 5799 5798 5797 5796 5795 5794 5793 5793 5792 5791 5791 5791 5791 5791 5791 5792 5792 5793 5793 5795 5796
5833 5831 5828 5827 5825 5823 5820 5818 5816 5814 5812 5810 5808 5806 5804 5802 5801 5800 5798 5797 5795 5794 5792 5791 5790 5789 5788 5787 5786 5786 5785 5785 5784 5784 5784 5784 5784 5784 5785 5786 5786 5787 5788
5828 5826 5823 5821 5819 5817 5814 5812 5810 5808 5806 5803 5801 5799 5797 5795 5794 5792 5791 5790 5788 5787 5786 5785 5783 5782 5781 5780 5779 5779 5778 5778 5777 5777 5777 5777 5777 5777 5777 5778 5779 5780 5781
5823 5821 5818 5816 5814 5811 5809 5806 5804 5801 5799 5796 5795 5792 5789 5788 5787 5786 5784 5783 5781 5780 5779 5778 5776 5775 5774 5773 5772 5772 5771 5770 5770 5770 5769 5769 5769 5769 5770 5770 5771 5772 5773
5818 5816 5813 5810 5808 5806 5803 5800 5797 5795 5792 5789 5787 5785 5783 5781 5780 5779 5777 5775 5774 5773 5772 5771 5769 5768 5767 5766 5765 5764 5764 5763 5763 5762 5762 5762 5762 5762 5762 5762 5763 5764 5765
5813 5811 5808 5805 5803 5800 5797 5794 5791 5789 5786 5783 5781 5779 5777 5775 5774 5772 5771 5769 5768 5767 5765 5764 5762 5760 5759 5758 5757 5756 5756 5756 5755 5754 5754 5754 5754 5754 5754 5754 5755 5756 5757
5808 5806 5803 5800 5797 5794 5791 5788 5786 5783 5781 5778 5775 5773 5771 5769 5767 5766 5764 5763 5761 5759 5758 5757 5755 5753 5751 5750 5749 5748 5747 5747 5747 5747 5746 5746 5745 5745 5746 5746 5746 5747 5748
5803 5800 5797 5794 5791 5788 5785 5783 5780 5777 5775 5772 5769 5768 5765 5763 5761 5760 5758 5756 5754 5753 5751 5750 5748 5746 5744 5742 5741 5740 5739 5738 5738 5738 5738 5737 5736 5736 5737 5737 5737 5738 5739
5797 5794 5791 5788 5785 5782 5779 5776 5774 5771 5768 5766 5763 5761 5759 5758 5756 5754 5752 5750 5748 5746 5744 5742 5741 5739 5737 5735 5733 5732 5731 5730 5729 5729 5729 5729 5728 5727 5727 5727 5728 5728 5729
5791 5787 5784 5781 5778 5775 5772 5770 5767 5765 5762 5760 5758 5756 5754 5752 5750 5748 5746 5743 5741 5740 5738 5736 5734 5732 5730 5728 5726 5725 5724 5722 5721 5720 5720 5720 5719 5718 5718 5718 5718 5719 5719